Location: Unspecified
(52.4292°N, 19.3359°E)
Time: 16:01:34
(UTC+02:00)

Transit 2A Rocket - Pass Details

Date: 26 May 2024
Orbit: 583 x 910 km, 66.7° (Epoch: 14 June)

Event Time Altitude Azimuth Distance (km) Brightness Sun altitude
Rises 09:28:40 0° 314° (NW) 3,313 7.9 42.0°
Reaches altitude 10° 09:31:27 10° 327° (NNW) 2,434 7.3 42.4°
Maximum altitude 09:36:08 26° 23° (NNE) 1,649 7.0 43.0°
Drops below altitude 10° 09:41:03 10° 79° (E) 2,564 8.5 43.7°
Sets 09:44:04 0° 92° (E) 3,526 9.1 44.1°
